TimeAKST,TemperatureF,Dew PointF,Humidity,Sea Level PressureIn,VisibilityMPH,Wind Direction,Wind SpeedMPH,Gust SpeedMPH,PrecipitationIn,Events,Conditions,WindDirDegrees,DateUTC
12:13 AM,33.8,32.0,93,29.92,2.5,SSE,15.0,21.9,0.01,Snow,Light Snow,150,2012-12-09 09:13:00
12:23 AM,33.8,32.0,93,29.93,2.5,SSE,11.5,20.7,0.01,Snow,Light Snow,160,2012-12-09 09:23:00
12:33 AM,33.8,32.0,93,29.93,1.5,SSE,13.8,-,0.02,Snow,Light Snow,150,2012-12-09 09:33:00
12:53 AM,33.1,32.0,96,29.92,1.5,SSE,16.1,23.0,0.04,Snow,Light Snow,150,2012-12-09 09:53:00
1:34 AM,33.8,32.0,93,29.91,2.0,SSE,15.0,-,0.04,Snow,Light Snow,150,2012-12-09 10:34:00
1:53 AM,33.1,32.0,96,29.93,2.5,SSE,11.5,21.9,0.05,Snow,Light Snow,150,2012-12-09 10:53:00
2:13 AM,33.8,32.0,93,29.92,3.0,SSE,11.5,-,0.02,Snow,Light Snow,160,2012-12-09 11:13:00
2:23 AM,33.8,32.0,93,29.90,2.5,SSE,12.7,-,0.03,Snow,Light Snow,150,2012-12-09 11:23:00
2:36 AM,33.8,32.0,93,29.90,3.0,SSE,12.7,23.0,0.03,,Overcast,160,2012-12-09 11:36:00
3:53 AM,34.0,33.1,96,29.92,5.0,SSE,11.5,18.4,0.03,Snow,Light Snow,160,2012-12-09 12:53:00
4:53 AM,35.1,34.0,96,29.92,4.0,South,8.1,19.6,0.01,Rain,Light Rain,180,2012-12-09 13:53:00
5:53 AM,36.0,35.1,97,29.94,5.0,South,6.9,-,0.01,,Overcast,170,2012-12-09 14:53:00
6:00 AM,35.6,35.6,100,29.94,4.0,SSE,10.4,-,0.00,Rain,Light Rain,150,2012-12-09 15:00:00
6:51 AM,35.6,35.6,100,29.96,6.0,SSE,4.6,-,0.02,,Overcast,150,2012-12-09 15:51:00
6:53 AM,36.0,35.1,97,29.97,6.0,Calm,Calm,-,0.02,,Overcast,0,2012-12-09 15:53:00
7:53 AM,36.0,35.1,97,30.00,10.0,SSW,3.5,-,0.04,,Mostly Cloudy,210,2012-12-09 16:53:00
8:00 AM,35.6,35.6,100,30.00,10.0,Calm,Calm,-,N/A,,Mostly Cloudy,0,2012-12-09 17:00:00
8:30 AM,35.6,35.6,100,30.02,10.0,West,3.5,-,0.01,,Mostly Cloudy,270,2012-12-09 17:30:00
8:53 AM,36.0,35.1,97,30.03,10.0,SSW,3.5,-,0.01,,Mostly Cloudy,210,2012-12-09 17:53:00
9:53 AM,36.0,35.1,97,30.06,10.0,ESE,6.9,-,N/A,,Mostly Cloudy,120,2012-12-09 18:53:00
10:53 AM,37.0,36.0,96,30.08,10.0,SSE,3.5,-,N/A,,Overcast,160,2012-12-09 19:53:00
11:53 AM,37.9,37.0,97,30.09,10.0,SSE,4.6,-,0.01,Rain,Light Rain,160,2012-12-09 20:53:00
12:53 PM,37.9,37.0,97,30.09,10.0,SSW,4.6,-,0.01,Rain,Light Rain,200,2012-12-09 21:53:00
1:53 PM,39.0,37.0,93,30.07,9.0,SSE,5.8,-,0.03,Rain,Light Rain,150,2012-12-09 22:53:00
2:53 PM,37.9,37.0,97,30.06,10.0,SE,4.6,-,0.00,Rain,Light Rain,140,2012-12-09 23:53:00
3:53 PM,39.9,37.0,89,30.07,10.0,SSE,6.9,-,0.01,,Mostly Cloudy,160,2012-12-10 00:53:00
4:53 PM,37.9,36.0,93,30.08,10.0,SE,5.8,-,N/A,,Clear,140,2012-12-10 01:53:00
5:53 PM,39.0,37.0,93,30.09,5.0,SSE,4.6,-,0.01,Rain,Rain,150,2012-12-10 02:53:00
6:53 PM,39.0,37.9,96,30.10,9.0,South,4.6,-,0.04,Rain,Light Rain,170,2012-12-10 03:53:00
6:54 PM,39.2,37.4,93,30.10,8.0,South,4.6,-,0.00,Rain,Light Rain,190,2012-12-10 03:54:00
7:53 PM,39.0,37.0,93,30.10,10.0,Calm,Calm,-,0.01,,Mostly Cloudy,0,2012-12-10 04:53:00
8:53 PM,37.0,37.0,100,30.11,8.0,ESE,8.1,-,0.01,Rain,Light Rain,110,2012-12-10 05:53:00
9:53 PM,39.0,37.9,96,30.12,10.0,South,5.8,-,0.00,Rain,Light Rain,190,2012-12-10 06:53:00
10:16 PM,39.2,37.4,93,30.12,10.0,South,5.8,-,0.00,,Overcast,170,2012-12-10 07:16:00
10:23 PM,39.2,37.4,93,30.12,10.0,SSE,5.8,-,0.00,,Overcast,160,2012-12-10 07:23:00
10:35 PM,39.2,37.4,93,30.12,10.0,Calm,Calm,-,0.00,,Mostly Cloudy,0,2012-12-10 07:35:00
10:44 PM,39.2,37.4,93,30.11,10.0,Calm,Calm,-,0.00,,Scattered Clouds,0,2012-12-10 07:44:00
10:53 PM,39.0,37.9,96,30.12,10.0,SSE,3.5,-,0.00,,Partly Cloudy,160,2012-12-10 07:53:00
11:53 PM,37.9,37.0,97,30.12,10.0,SSE,5.8,-,N/A,,Scattered Clouds,160,2012-12-10 08:53:00